Weather History for Papa, Hungary

Change the Weather History Date:

Thursday, January 3, 2013

  Actual Average Record
Temperature  
Mean Temperature 35 °F -  
Max Temperature 44 °F - - ()
Min Temperature 26 °F - - ()
Degree Days  
Heating Degree Days 30    
Moisture  
Dew Point 31 °F    
Average Humidity 85    
Maximum Humidity 100    
Minimum Humidity 61    
Precipitation  
Precipitation 0.00 in - - ()
Sea Level Pressure  
Sea Level Pressure 30.46 in    
Wind  
Wind Speed 5 mph ()    
Max Wind Speed 13 mph    
Max Gust Speed -    
Visibility 3.9 miles    
Events      
T = Trace of Precipitation, MM = Missing Value Source: Averaged Metar Reports

Daily Weather History Graph

Daily Weather History Graph

Search for Another Location

Airport:

Trip Planner

Search our weather history database for the weather conditions in past years. The results will help you decide how hot, cold, wet, or windy it might be!

Date:

Astronomy

Jan. 03, 2013 Rise Set
Actual Time 7:37 AM CET 4:12 PM CET
Civil Twilight 7:01 AM CET 4:47 PM CET
Nautical Twilight 6:22 AM CET 5:26 PM CET
Astronomical Twilight 5:45 AM CET 6:03 PM CET
Moon 10:57 PM CET (1/3) 10:13 AM CET (1/3)
Length of Visible Light 9h 46m
Length of Day
8h 35m
Waning Gibbous, 68% of the Moon is Illuminated
Jan 3
Waning Gibbous
Jan 5
Last Quarter
Jan 11
New
Jan 19
First Quarter
Jan 27
Full

Hourly Weather History & Observations

Time (CET) Temp. Windchill Dew Point Humidity Pressure Visibility Wind Dir Wind Speed Gust Speed Precip Events Conditions
12:15 AM 28.4 °F 23.4 °F 28.4 °F 100% 30.48 in 0.9 mi South 4.5 mph - N/A   Clear
12:45 AM 28.4 °F 23.4 °F 28.4 °F 100% 30.48 in 0.9 mi South 4.5 mph - N/A   Clear
1:15 AM 28.4 °F - 28.4 °F 100% 30.48 in 1.2 mi SSW 2.2 mph - N/A   Clear
1:45 AM 28.4 °F 23.4 °F 28.4 °F 100% 30.48 in 1.2 mi SSW 4.5 mph - N/A   Clear
2:15 AM 26.6 °F 21.3 °F 26.6 °F 100% 30.48 in 1.2 mi SSW 4.5 mph - N/A   Clear
2:45 AM 28.4 °F 23.4 °F 28.4 °F 100% 30.51 in 1.2 mi South 4.5 mph - N/A   Partly Cloudy
3:15 AM 28.4 °F 23.4 °F 28.4 °F 100% 30.51 in 1.2 mi SSW 4.5 mph - N/A   Partly Cloudy
3:45 AM 28.4 °F 23.4 °F 28.4 °F 100% 30.51 in 1.2 mi South 4.5 mph - N/A   Partly Cloudy
4:15 AM 26.6 °F 19.2 °F 26.6 °F 100% 30.51 in 1.2 mi South 6.7 mph - N/A   Clear
4:45 AM 26.6 °F 21.3 °F 26.6 °F 100% 30.51 in 1.9 mi South 4.5 mph - N/A   Clear
5:15 AM 28.4 °F 21.4 °F 28.4 °F 100% 30.51 in 1.9 mi South 6.7 mph - N/A   Partly Cloudy
5:45 AM - - - N/A% - 3.1 mi South 8.9 mph - N/A   Overcast
6:15 AM 26.6 °F 21.3 °F 26.6 °F 100% 30.51 in 1.9 mi South 4.5 mph - N/A   Scattered Clouds
6:45 AM 26.6 °F 21.3 °F 26.6 °F 100% 30.51 in 1.9 mi South 4.5 mph - N/A   Scattered Clouds
7:15 AM 28.4 °F 23.4 °F 28.4 °F 100% 30.51 in 1.9 mi South 4.5 mph - N/A   Scattered Clouds
7:45 AM 28.4 °F 23.4 °F 28.4 °F 100% 30.51 in 1.9 mi South 4.5 mph - N/A   Scattered Clouds
8:15 AM 28.4 °F 23.4 °F 28.4 °F 100% 30.51 in 2.5 mi South 4.5 mph - N/A   Mostly Cloudy
8:43 AM 30.2 °F 25.5 °F 30.2 °F 100% 30.51 in 3.1 mi South 4.5 mph - N/A   Mostly Cloudy
8:45 AM 30.2 °F 25.5 °F 30.2 °F 100% 30.51 in 3.1 mi South 4.5 mph - N/A   Mostly Cloudy
9:15 AM 33.8 °F 27.9 °F 32.0 °F 93% 30.51 in 3.1 mi South 6.7 mph - N/A   Mostly Cloudy
9:25 AM 33.8 °F 27.9 °F 32.0 °F 93% 30.51 in 5.0 mi SSW 6.7 mph - N/A   Unknown
9:45 AM 35.6 °F 30.0 °F 32.0 °F 87% 30.51 in 5.0 mi SSW 6.7 mph - N/A   Unknown
10:15 AM 37.4 °F 30.9 °F 33.8 °F 87% 30.51 in - SSW 8.9 mph - N/A   Clear
10:45 AM 39.2 °F 33.1 °F 33.8 °F 81% 30.51 in - SSW 8.9 mph - N/A   Clear
11:45 AM - - - N/A% - 6.2 mi SSW 8.9 mph - N/A   Overcast
12:15 PM 42.8 °F 36.7 °F 32.0 °F 66% 30.48 in - SW 11.2 mph - N/A   Clear
12:45 PM 42.8 °F 36.7 °F 33.8 °F 70% 30.45 in - SW 11.2 mph - N/A   Clear
1:15 PM 42.8 °F 35.9 °F 33.8 °F 70% 30.42 in - SSW 13.4 mph - N/A   Clear
1:45 PM 44.6 °F 38.2 °F 33.8 °F 66% 30.42 in - SSW 13.4 mph - N/A   Clear
2:15 PM 44.6 °F 39.8 °F 33.8 °F 66% 30.42 in - SSW 8.9 mph - N/A   Clear
2:45 PM - - - N/A% - 6.2 mi SSW 8.9 mph - N/A   Overcast
3:15 PM 44.6 °F 40.8 °F 32.0 °F 61% 30.42 in - SSW 6.7 mph - N/A   Clear
3:45 PM 42.8 °F 38.7 °F 32.0 °F 66% 30.42 in - SW 6.7 mph - N/A   Clear
4:15 PM 42.8 °F 38.7 °F 33.8 °F 70% 30.42 in - South 6.7 mph - N/A   Clear
4:45 PM 41.0 °F 36.5 °F 32.0 °F 70% 30.42 in 6.2 mi SSW 6.7 mph - N/A   Overcast
5:15 PM 41.0 °F 38.1 °F 32.0 °F 70% 30.42 in 6.2 mi SSW 4.5 mph - N/A   Mostly Cloudy
5:45 PM - - - N/A% - 6.2 mi SW 4.5 mph - N/A   Overcast
6:15 PM 41.0 °F 38.1 °F 32.0 °F 70% 30.39 in 6.2 mi SSW 4.5 mph - N/A   Mostly Cloudy
6:45 PM 41.0 °F 36.5 °F 32.0 °F 70% 30.39 in 6.2 mi SSW 6.7 mph - N/A   Mostly Cloudy
7:15 PM 41.0 °F 35.4 °F 33.8 °F 76% 30.39 in 6.2 mi SSW 8.9 mph - N/A   Mostly Cloudy
7:45 PM 41.0 °F 36.5 °F 32.0 °F 70% 30.39 in 6.2 mi SSW 6.7 mph - N/A   Mostly Cloudy
8:15 PM 41.0 °F 38.1 °F 33.8 °F 76% 30.42 in 6.2 mi SSW 4.5 mph - N/A   Mostly Cloudy
8:45 PM - - - N/A% - 6.2 mi SW 4.5 mph - N/A   Scattered Clouds
9:15 PM 41.0 °F 36.5 °F 33.8 °F 76% 30.39 in 6.2 mi South 6.7 mph - N/A   Mostly Cloudy
9:45 PM 41.0 °F 36.5 °F 33.8 °F 76% 30.39 in 6.2 mi SSW 6.7 mph - N/A   Mostly Cloudy
10:15 PM 41.0 °F 36.5 °F 33.8 °F 76% 30.39 in 6.2 mi SSW 6.7 mph - N/A   Mostly Cloudy
10:45 PM 41.0 °F 36.5 °F 33.8 °F 76% 30.39 in 6.2 mi SSW 6.7 mph - N/A   Mostly Cloudy
11:15 PM 41.0 °F 36.5 °F 33.8 °F 76% 30.39 in 6.2 mi SW 6.7 mph - N/A   Mostly Cloudy
11:45 PM - - - N/A% - 6.2 mi North - - N/A   Scattered Clouds